User: anonymous   Login
Location: Unspecified
(0.0000°N, 0.0000°E)
Time: 12:31:56
(UTC+00:00)
Language:

SINAH 1 - Orbit

View from above orbital plane
View from above orbital plane
View from above satellite
View from above satellite

Ground track
Ground track

The orbit data is extracted from the following two-line orbital elements,

1 28893U 05043D   21015.84293197  .00000007  00000-0  10726-4 0  9991
2 28893  98.0480 146.2493 0015165   1.3335 358.7904 14.61554433811342
Epoch (UTC): 15 January 2021 20:13:49
Eccentricity: 0.0015165
inclination: 98.0480°
perigee height: 677 km
apogee height: 699 km
right ascension of ascending node: 146.2493°
argument of perigee: 1.3335°
revolutions per day: 14.61554433
mean anomaly at epoch: 358.7904°
orbit number at epoch: 81134

The dashed part of the orbit path shows where the satellite is in the earth's shadow,  

DLR